Theta_e
303 295 293 293 295 298 300 300 300 300 299 299 299 298 297 296 297 299 301 303 304 301 299 299 300 299 300 302 303 307 308 308 308 309 309 310 311 311 321 323 322 324 328 331 336 333 336 335 337 340 337 329 330 329 328 331 333 331 331 332 331 334 334 332 331 332 331 330 329 330 331 331 332 329 334 334 336 334 337 340 336 339 340 341 340 338
301 294 294 297 298 300 301 302 302 301 300 298 297 297 297 298 295 299 300 303 304 302 299 301 299 299 301 303 304 307 307 306 307 308 309 310 309 313 318 319 319 325 330 331 333 333 333 333 337 333 328 328 326 328 328 328 329 331 330 330 331 333 332 333 332 330 331 331 328 329 329 329 328 328 328 328 333 336 338 340 340 341 339 341 340 340
294 292 296 299 302 303 302 303 302 300 299 299 297 297 296 297 299 301 302 303 304 301 299 301 298 299 301 303 304 305 306 307 309 309 309 310 310 312 319 318 322 325 324 329 333 333 333 331 331 325 327 327 328 326 326 328 329 328 327 329 329 328 329 331 332 335 331 332 332 337 337 330 327 328 332 328 330 332 334 339 338 341 340 340 339 340
292 295 299 302 303 302 301 302 302 300 300 298 297 296 294 298 297 293 300 302 303 301 299 300 298 298 301 303 304 305 305 307 308 308 309 311 311 312 317 320 320 320 324 323 327 330 329 326 328 329 326 326 326 327 327 327 326 327 328 328 328 328 330 329 330 332 336 337 339 335 330 331 330 326 332 335 335 334 332 332 335 338 339 337 336 336
295 300 303 302 302 301 299 301 300 299 296 299 299 297 296 297 298 298 298 301 305 303 304 300 298 298 300 299 300 304 306 306 306 308 309 310 310 314 324 323 324 323 327 325 327 325 323 327 329 327 325 326 326 326 325 325 326 328 327 329 328 327 329 329 328 327 329 337 335 334 333 331 331 333 333 333 333 332 332 332 334 334 339 335 334 336
298 303 306 301 300 301 300 298 299 299 295 297 300 299 299 299 298 299 301 299 297 296 300 298 291 292 298 300 300 303 304 304 306 307 307 309 310 311 320 323 325 325 325 326 322 323 325 328 329 325 326 326 327 326 326 327 327 327 328 328 328 329 329 328 328 328 328 338 333 332 329 327 328 328 331 327 328 330 335 326 335 332 332 332 338 334
300 304 303 300 300 300 300 298 301 300 295 294 295 301 300 299 299 299 298 298 293 290 298 302 291 288 297 298 301 303 302 303 306 307 307 309 309 314 320 322 322 322 323 324 322 323 322 325 326 326 326 326 326 327 328 329 329 329 329 329 329 329 329 329 329 330 331 336 333 333 331 332 330 326 328 332 335 332 328 334 332 332 340 332 334 336
301 301 301 301 300 299 298 296 300 300 295 292 300 300 299 298 297 297 297 297 295 300 302 301 297 291 291 296 302 303 302 302 303 305 307 308 318 321 319 320 321 320 322 320 323 324 324 325 326 326 327 327 326 328 330 330 329 330 329 328 328 330 330 330 331 332 336 334 334 333 333 332 329 328 328 330 329 332 330 333 334 329 331 333 329 335
302 299 300 299 299 298 296 298 300 301 296 296 300 302 299 299 298 298 298 297 298 297 292 296 300 292 290 297 302 302 299 301 301 303 305 307 317 321 321 319 319 320 321 323 323 323 322 324 325 326 327 328 328 330 330 330 331 331 330 331 331 330 330 331 333 333 335 334 333 332 331 330 329 328 327 326 328 329 330 330 333 329 327 330 334 331
302 301 301 301 299 296 299 301 301 301 297 300 301 302 302 301 299 299 297 296 297 294 289 294 299 291 291 296 298 301 299 299 301 304 305 307 319 317 317 320 319 320 321 323 325 323 324 324 324 328 329 329 330 331 332 332 333 333 334 334 334 333 335 336 337 336 334 334 333 333 332 331 327 329 329 326 328 328 332 326 329 332 332 329 334 339
302 306 306 302 299 300 300 301 302 301 302 304 301 299 298 299 298 298 297 297 294 288 290 296 298 295 288 295 297 297 300 302 303 304 306 308 314 318 319 319 318 320 321 321 323 324 324 325 326 328 328 329 330 331 331 332 333 335 335 336 336 336 338 339 336 334 333 333 334 331 332 329 329 329 327 325 326 327 330 326 329 336 330 336 330 334
301 303 301 302 305 303 302 300 303 303 303 301 298 296 297 296 297 295 294 295 287 285 293 297 297 298 288 293 299 303 305 305 305 303 305 307 317 317 317 317 319 320 319 322 322 322 323 323 323 326 326 327 328 330 331 331 332 332 334 334 333 334 336 337 337 335 334 333 332 332 331 330 329 329 327 326 326 325 326 326 328 328 333 330 330 337
296 298 301 302 305 302 300 298 300 302 301 299 297 296 291 288 288 284 289 284 285 286 293 297 298 294 292 298 302 302 303 306 309 309 306 307 309 314 314 316 320 322 321 322 322 321 323 321 322 325 326 327 327 328 330 330 330 332 332 332 331 332 334 336 337 335 334 332 331 331 331 330 331 331 329 326 327 330 326 328 326 325 327 328 328 330
294 299 299 300 302 303 301 294 296 294 298 297 294 294 289 285 284 281 285 287 289 292 297 297 299 292 296 299 304 305 308 310 311 312 313 312 314 314 315 317 319 320 321 321 321 321 323 324 324 325 325 325 326 327 329 329 329 330 330 330 330 330 333 334 335 335 334 333 331 331 330 330 328 331 330 328 326 331 328 329 327 330 326 329 328 328
287 288 294 298 294 302 300 299 299 298 297 296 299 296 293 290 287 281 285 283 285 288 294 298 294 294 291 295 307 308 308 309 311 311 313 315 316 317 317 319 321 320 319 320 320 320 321 325 324 324 325 325 326 326 328 329 330 332 330 330 329 329 331 333 333 334 334 334 332 332 332 331 331 330 331 331 328 330 326 327 330 331 331 329 328 329
292 292 298 302 301 301 298 302 303 301 298 298 298 299 294 291 297 288 290 289 289 288 289 292 290 299 298 305 307 309 308 308 310 309 310 310 313 313 314 316 317 320 319 319 320 319 321 326 325 325 325 325 326 327 328 329 330 331 331 332 331 329 330 331 332 333 333 334 334 334 333 334 333 331 332 327 327 329 330 329 330 330 330 328 326 327
293 291 300 301 302 301 300 302 301 302 289 296 297 292 295 302 298 291 290 296 290 288 286 293 295 298 304 304 305 306 306 307 308 308 309 311 312 313 312 313 316 319 320 320 318 319 322 327 326 326 325 325 326 326 327 328 329 330 331 332 330 329 330 330 331 332 333 333 333 333 334 333 332 332 329 326 327 328 329 331 331 330 327 327 326 325
291 292 299 299 296 302 304 303 302 303 302 298 292 296 301 304 302 294 286 288 287 284 286 293 288 292 293 290 302 304 304 306 307 308 312 312 313 314 315 317 317 320 320 321 321 321 322 322 324 325 325 324 326 326 326 328 330 331 331 331 329 328 327 329 330 331 331 331 332 333 334 333 332 331 329 327 326 328 329 329 329 327 326 325 325 325
298 290 295 300 300 301 304 303 299 302 304 298 297 304 294 289 289 295 290 283 283 282 285 290 292 292 293 294 298 300 302 304 305 308 310 311 312 312 313 316 317 318 318 319 319 318 319 319 320 321 323 324 325 324 328 328 330 331 331 330 329 328 328 329 329 330 330 331 332 333 333 332 331 331 328 328 328 328 328 327 327 326 326 325 325 324
301 290 292 299 299 301 301 299 291 295 301 303 303 300 302 297 294 290 291 292 290 284 284 286 290 287 297 299 303 302 304 304 306 306 308 310 310 312 313 314 315 316 317 317 318 318 319 319 321 321 321 322 325 325 328 328 329 329 330 330 329 329 329 328 328 329 329 331 332 332 332 331 331 329 327 326 325 324 324 324 325 326 325 325 323 323
294 301 287 297 301 300 293 297 294 296 294 296 296 295 297 300 302 296 298 292 289 286 286 284 284 290 298 303 304 304 305 307 307 308 309 310 311 312 314 314 314 316 317 317 317 319 319 320 320 321 322 326 326 327 328 328 328 328 328 329 328 328 327 328 328 328 330 331 331 331 332 332 332 330 326 325 324 322 322 323 324 326 326 323 324 324
293 295 289 294 294 293 295 300 299 299 298 296 296 294 296 295 292 288 286 296 294 289 285 285 284 293 300 305 306 306 308 308 311 310 309 312 311 313 312 314 315 314 315 317 318 319 320 321 323 323 323 325 325 325 326 329 327 326 326 326 327 326 326 327 327 328 329 330 331 331 331 331 331 328 324 325 324 323 322 322 323 325 324 325 324 324
302 299 294 290 293 295 298 301 303 302 301 299 298 295 298 297 296 291 285 289 293 293 294 293 288 289 301 305 307 307 308 309 309 310 310 310 311 312 312 315 316 316 316 316 319 319 321 321 321 320 321 321 322 323 325 327 326 326 326 326 327 326 326 327 327 328 329 330 330 331 332 331 329 327 325 326 325 323 321 323 323 322 323 323 324 324
305 294 291 292 296 298 301 302 302 302 301 297 298 299 297 294 296 294 293 295 290 291 289 289 286 290 301 305 309 310 309 309 309 309 308 309 311 311 311 313 314 315 317 319 319 319 319 320 321 322 323 323 322 323 324 325 326 327 327 326 326 326 326 327 328 328 328 328 330 330 330 328 329 328 325 325 325 325 325 324 324 322 322 321 321 319
292 297 294 289 288 291 294 297 297 300 299 296 296 298 298 298 298 299 297 300 289 292 290 288 284 287 300 306 308 309 308 307 308 310 310 309 310 311 311 312 314 315 316 317 317 317 319 320 320 320 321 321 321 323 325 325 325 325 325 325 325 325 326 327 328 326 326 327 328 329 329 328 327 327 327 326 325 325 327 327 326 326 321 322 321 320
295 294 293 286 283 281 281 283 285 288 292 296 298 297 298 297 298 298 288 294 287 292 292 288 288 295 300 305 305 306 307 307 308 309 310 310 310 310 311 311 312 313 314 317 316 317 317 318 319 320 321 321 321 322 323 324 324 324 324 326 329 325 327 326 329 327 328 327 327 327 328 327 326 325 326 326 326 326 328 327 326 326 325 320 318 323
296 298 296 294 290 288 289 291 296 296 294 291 294 296 296 298 298 298 296 290 287 292 290 293 294 295 298 301 303 304 305 305 305 307 307 308 309 310 311 311 311 312 312 313 315 316 316 317 317 318 320 321 321 322 322 322 323 323 324 327 326 326 326 327 329 328 327 327 326 325 325 325 325 326 326 327 327 328 328 329 330 325 324 322 321 320
298 290 296 295 295 294 294 294 296 295 293 294 294 295 296 297 298 297 290 289 296 292 287 295 298 295 296 300 302 303 305 305 306 306 306 307 308 308 308 308 307 309 310 310 312 312 312 314 316 318 318 319 319 321 321 320 320 320 321 321 323 325 327 325 327 327 326 327 326 325 326 327 328 327 327 327 328 326 327 327 329 329 328 328 323 320
296 290 296 295 294 295 295 296 296 295 294 294 295 295 295 296 297 296 296 296 296 290 288 296 298 295 297 300 302 303 304 304 305 306 306 307 307 307 306 305 305 306 306 305 305 305 306 308 314 314 316 316 317 318 319 319 320 321 319 319 318 321 323 325 326 325 326 326 326 326 327 328 329 329 328 326 327 327 328 328 329 328 327 328 328 326
298 292 296 296 294 294 295 295 295 293 293 293 294 295 297 297 297 299 299 299 298 296 297 298 298 296 299 300 301 303 305 305 305 307 307 305 303 304 303 302 302 302 302 302 302 303 304 304 306 309 312 314 316 315 316 318 319 320 320 320 321 320 321 322 322 324 323 324 325 326 325 326 328 328 328 330 330 329 329 328 330 329 326 326 327 327
297 292 295 296 294 294 295 295 295 294 293 292 294 295 295 296 297 298 299 299 299 299 299 297 295 293 299 302 302 304 304 304 305 304 304 304 302 301 300 300 301 301 301 301 301 302 302 302 303 304 304 305 306 309 311 319 317 316 318 319 320 320 321 321 320 318 320 322 324 325 325 325 325 325 324 329 327 328 328 329 330 330 328 327 327 327
299 293 297 295 288 289 294 294 294 294 293 292 292 293 293 294 292 296 294 299 297 293 295 294 290 290 297 301 301 301 301 301 301 301 301 301 301 300 299 299 299 299 300 301 301 301 301 301 301 302 302 303 304 304 305 308 309 309 310 314 317 317 319 321 321 319 319 322 322 323 323 325 323 323 323 326 326 324 326 328 326 326 326 327 327 326
299 296 291 290 287 287 292 293 293 292 291 287 289 293 295 296 297 298 299 300 300 299 292 289 291 296 298 299 298 298 299 299 300 300 299 298 298 298 297 297 298 298 298 299 299 300 300 300 300 300 300 301 301 302 302 303 305 307 309 310 313 315 317 318 319 319 320 319 319 319 322 321 321 322 323 323 323 326 325 324 324 324 324 323 326 327
297 295 291 295 286 287 291 292 293 289 281 284 295 299 298 296 295 294 295 297 299 301 296 298 297 299 298 297 297 297 297 298 297 298 299 297 296 296 297 297 297 297 298 298 298 298 298 298 299 299 299 299 299 300 302 302 302 304 306 306 306 310 313 311 311 311 311 313 315 317 318 320 320 320 322 324 323 323 323 322 321 323 323 321 324 325
295 294 292 294 288 286 289 289 285 280 282 293 300 299 300 299 298 295 296 297 297 298 298 297 297 297 298 299 298 297 296 297 297 297 298 298 298 296 295 296 296 296 296 296 296 297 297 297 297 298 298 297 298 299 300 300 302 303 304 304 304 303 309 309 309 309 310 309 310 310 311 313 315 318 320 322 322 324 321 320 320 321 321 321 323 323
292 291 293 290 290 289 287 286 279 280 290 295 297 297 299 299 297 296 293 296 298 298 298 296 297 298 298 297 297 298 298 298 298 298 298 298 299 297 297 296 296 295 295 295 296 296 297 297 296 297 297 298 298 299 299 300 301 302 302 304 302 302 304 305 304 304 305 305 306 307 308 309 310 311 312 315 321 321 321 322 323 323 325 324 324 324
297 296 293 288 291 284 286 286 285 289 290 292 292 293 295 293 294 292 287 291 298 298 298 297 298 298 297 297 297 296 296 295 292 293 297 297 297 297 296 295 295 295 295 295 294 295 296 298 299 298 298 299 300 301 301 302 301 301 301 300 301 301 302 303 303 302 303 303 304 305 306 307 308 309 310 311 312 312 315 321 322 323 324 323 323 323
297 291 293 289 286 288 285 284 284 281 280 285 291 295 297 299 299 299 297 290 298 299 299 296 295 296 295 295 294 294 295 291 288 289 294 296 296 295 296 296 296 296 297 297 298 297 298 298 300 300 300 300 300 301 303 303 302 301 301 300 300 299 301 302 303 302 303 303 303 304 304 304 305 307 308 309 309 311 312 313 314 317 322 320 320 321
297 297 294 289 287 287 286 282 282 280 282 288 289 292 295 297 298 299 293 286 298 298 298 297 294 294 294 293 293 294 293 288 287 289 294 295 296 297 296 297 297 297 297 299 299 299 299 299 300 301 303 301 300 301 301 302 303 302 301 301 302 300 300 302 302 302 302 303 303 303 303 304 304 306 307 307 309 311 311 311 311 313 314 316 319 318
294 292 291 288 286 287 285 283 281 283 282 288 292 293 295 296 298 295 282 283 295 298 298 296 295 294 294 295 295 295 293 288 288 291 295 295 295 296 295 294 295 295 294 295 297 298 298 299 299 297 297 298 298 300 302 299 300 300 300 300 301 303 301 301 301 301 302 302 302 303 303 304 305 306 306 306 307 309 310 311 311 312 312 313 313 313
288 288 289 285 286 286 285 283 282 285 289 293 293 295 295 298 294 285 280 287 297 297 298 298 297 297 296 295 296 291 293 294 294 295 296 295 295 295 295 296 295 295 295 295 295 297 297 298 299 297 298 298 299 300 300 300 300 300 300 300 301 301 301 302 302 302 302 302 302 302 303 303 304 304 304 304 305 306 307 308 309 311 312 312 312 312
287 287 288 289 285 284 285 283 282 284 288 292 295 295 297 292 283 283 291 300 298 297 298 298 297 296 295 294 293 293 294 295 296 296 296 296 295 296 296 296 296 296 297 297 296 296 297 297 298 298 298 299 299 299 300 299 299 299 299 299 299 300 300 300 300 300 300 301 301 301 302 302 303 304 305 304 304 304 304 305 306 308 310 310 310 310
287 284 284 284 286 286 286 283 281 277 287 295 295 293 296 287 287 295 297 297 298 298 297 295 294 295 296 293 294 294 295 295 295 295 296 296 296 295 295 295 296 295 296 297 296 295 296 297 297 297 298 299 299 299 299 299 298 298 298 297 299 300 300 300 301 300 301 300 300 301 301 301 302 303 304 304 304 303 303 304 304 305 306 306 307 308
292 285 285 286 288 282 282 279 279 286 291 296 294 287 291 294 297 298 296 293 297 297 295 295 295 295 296 296 295 295 295 294 295 295 295 295 296 296 296 296 296 296 296 296 296 295 296 296 297 297 298 299 299 299 299 299 298 298 297 298 300 301 301 301 301 300 300 300 300 301 301 300 301 302 302 302 302 302 302 302 303 304 304 304 305 306
291 289 290 285 289 286 284 286 290 293 294 296 296 295 295 296 298 298 296 294 295 295 297 295 295 296 296 296 295 295 294 294 294 295 295 295 295 295 295 295 295 296 296 296 296 296 296 296 296 297 297 299 299 299 299 299 298 298 297 300 300 299 300 300 300 300 299 299 299 300 300 301 301 301 301 301 301 300 300 300 301 300 301 301 302 302
294 294 295 292 288 292 293 294 295 294 294 294 297 297 296 296 297 297 295 293 294 294 294 292 292 293 294 297 295 294 294 295 294 294 294 294 294 294 296 296 296 296 296 297 297 296 296 297 297 297 297 298 299 299 299 299 298 297 299 300 300 300 300 300 299 299 299 298 299 299 299 299 299 299 300 301 301 300 300 300 300 300 299 300 300 301
292 294 292 288 290 288 283 292 292 292 293 294 294 295 296 297 296 296 295 294 295 295 295 295 294 294 294 293 294 293 293 294 294 294 294 294 294 294 295 295 295 296 296 296 296 295 296 297 296 296 297 297 298 298 299 299 299 299 299 300 300 300 300 299 299 298 298 298 298 298 298 298 298 298 299 299 299 299 299 299 299 299 298 299 299 298
287 293 289 290 289 286 286 291 293 294 294 295 294 293 293 295 295 296 296 296 295 295 295 295 295 294 294 293 294 293 293 293 293 292 292 293 294 295 294 295 295 295 296 297 297 296 296 296 295 296 296 296 297 298 298 298 298 299 299 299 300 299 299 298 298 297 297 297 297 297 298 298 292 295 297 298 298 298 298 299 299 299 299 298 299 299
290 293 286 290 287 289 292 292 292 293 293 293 294 294 294 294 294 294 295 295 295 294 295 296 296 296 295 294 295 295 294 293 293 292 292 292 294 294 294 295 295 295 296 296 296 296 296 296 295 296 296 297 298 298 298 298 298 299 299 299 299 299 298 297 296 297 297 297 297 296 297 297 297 297 297 297 298 298 298 298 298 298 298 300 300 301
291 287 290 288 285 284 285 288 291 286 285 290 292 294 294 295 295 295 295 294 295 294 294 293 294 295 295 295 294 294 292 292 292 292 292 293 294 294 294 294 295 294 295 296 296 296 296 296 296 296 296 297 298 298 297 298 298 299 299 299 299 298 297 297 296 296 295 296 296 296 296 296 296 296 296 296 296 296 297 293 293 294 297 297 295 293
288 290 289 285 285 285 290 292 293 292 292 292 293 295 295 296 295 294 293 293 293 293 294 294 293 294 293 294 295 293 292 292 292 292 292 292 293 294 294 294 293 293 294 295 295 296 296 295 296 296 296 297 297 297 297 298 298 298 299 299 298 298 297 296 295 295 295 295 295 294 295 295 295 295 295 295 295 296 295 296 297 293 292 292 292 291
Wind_Speed
8 10 11 12 12 12 14 16 15 15 19 19 14 12 13 13 13 15 16 15 17 15 16 15 15 16 15 17 17 6 7 4 8 10 10 8 8 11 9 10 9 14 8 10 12 13 11 10 9 5 8 15 16 13 10 4 5 6 7 3 2 3 2 2 5 5 6 4 5 3 3 6 4 5 3 4 4 5 4 3 5 4 3 5 6 6
11 11 12 14 14 15 14 14 14 17 17 17 15 16 15 15 12 15 14 16 14 8 11 14 16 16 14 14 16 12 14 14 13 12 10 11 11 8 6 10 8 9 10 9 11 10 10 8 10 14 14 15 12 6 4 7 10 9 6 7 6 5 2 3 3 3 5 4 6 8 7 4 4 5 5 4 4 5 4 4 4 3 5 4 4 4
11 13 12 15 14 14 15 13 13 15 15 15 12 12 14 12 11 14 15 13 9 11 7 13 14 13 14 14 13 14 11 13 12 11 11 12 12 11 10 13 7 6 10 9 9 9 8 9 15 14 11 12 10 8 8 8 10 9 9 7 7 6 8 3 1 4 8 8 4 4 3 7 7 6 5 4 3 6 5 3 4 3 4 6 4 2
10 12 16 15 13 13 14 13 14 14 13 10 10 10 10 9 10 9 11 15 14 6 8 10 12 11 13 14 14 14 16 11 16 15 15 12 11 11 14 16 15 16 11 10 11 11 11 17 8 8 11 9 9 9 8 9 11 8 8 8 8 9 8 6 5 3 3 10 9 10 9 8 6 5 4 4 4 3 5 5 5 3 3 7 6 4
12 12 15 15 16 15 15 15 12 7 8 9 12 11 10 11 10 12 6 9 7 8 1 6 9 8 10 13 14 14 12 14 11 15 14 13 12 8 11 11 7 3 1 5 9 15 13 9 7 9 13 12 10 9 9 9 8 6 7 6 6 6 6 6 5 10 11 6 8 7 7 6 5 4 4 3 3 3 3 5 4 4 2 4 6 5
15 14 9 14 17 20 14 7 7 7 9 9 14 16 15 15 16 13 5 9 5 7 10 9 8 10 10 14 17 12 9 14 16 13 13 14 14 11 15 14 11 5 6 10 17 16 10 7 9 10 10 11 9 8 7 10 10 11 8 7 7 6 7 6 6 10 4 2 6 6 6 6 5 5 5 5 5 3 1 5 3 4 5 5 2 4
11 8 11 17 17 15 10 11 12 13 11 10 10 16 18 20 19 15 11 9 6 8 6 10 11 7 10 13 11 8 12 17 13 9 13 14 16 11 11 12 11 9 12 14 15 14 10 7 9 8 8 8 9 7 6 6 6 10 10 8 7 7 5 6 5 5 3 3 4 5 5 5 6 6 5 4 3 5 5 3 4 4 2 5 3 3
10 12 11 7 4 5 8 10 11 12 12 11 11 15 18 21 18 18 19 14 6 7 6 9 11 10 10 13 15 14 16 18 16 14 14 15 5 15 15 11 12 10 14 17 14 11 10 8 6 9 10 7 7 7 5 4 4 9 11 10 9 6 7 6 6 4 3 6 4 5 5 5 6 5 5 5 5 4 5 3 2 5 3 3 5 2
9 9 9 12 12 9 10 12 12 15 12 10 13 13 14 16 17 17 14 6 5 6 10 8 13 10 10 9 13 15 17 16 15 15 15 12 12 12 15 13 9 15 15 13 10 9 10 9 6 9 10 8 8 8 8 7 6 8 9 11 11 9 9 8 6 6 5 7 7 6 6 6 6 6 6 5 4 5 4 3 3 5 5 6 4 4
10 12 11 9 7 10 11 13 13 13 12 14 17 15 9 11 14 13 10 8 6 6 8 10 11 10 8 8 7 8 10 13 13 13 14 13 15 13 12 13 17 16 12 11 11 11 11 8 9 9 10 9 7 8 9 9 9 10 9 11 11 10 7 6 5 5 8 8 7 5 4 5 6 5 5 5 5 5 3 4 3 2 4 4 2 1
7 9 10 10 10 11 12 14 16 15 14 11 14 16 18 17 11 10 10 9 6 8 11 13 9 8 7 6 6 7 6 8 8 8 10 11 15 15 15 13 17 17 14 10 9 10 11 11 10 11 11 11 11 10 12 10 10 9 9 9 9 8 7 6 6 8 9 8 6 5 4 5 6 6 7 5 5 4 3 4 3 1 4 3 5 3
14 11 8 6 10 11 13 13 15 19 16 12 10 8 5 6 10 9 9 10 7 9 13 15 14 14 9 7 5 4 8 2 6 11 12 14 17 15 14 13 17 17 17 15 12 12 12 10 11 11 9 8 10 10 10 10 11 12 12 11 12 10 9 9 9 9 9 8 8 5 5 6 5 5 5 5 5 4 4 4 3 4 3 4 3 2
14 11 9 10 10 15 12 11 11 5 4 9 8 8 9 7 5 8 9 9 10 8 8 11 14 8 10 2 4 4 0 6 10 16 3 8 15 15 13 14 19 15 19 17 15 15 13 13 13 12 11 10 9 9 11 12 12 12 14 17 17 14 12 11 10 10 9 8 8 7 6 6 5 4 5 5 4 3 4 3 4 4 4 3 3 3
10 12 12 11 12 13 14 11 6 9 11 11 10 9 10 8 7 6 8 5 7 11 12 10 6 8 7 6 6 7 11 12 15 16 12 10 10 10 16 18 16 15 12 11 10 9 6 11 12 14 14 12 12 12 12 13 12 10 9 11 14 13 11 10 9 9 9 8 7 7 7 6 6 3 4 4 4 2 4 4 4 2 4 3 4 4
8 12 13 12 10 12 14 12 10 7 11 13 11 11 8 7 7 5 8 7 7 7 7 9 6 4 6 5 6 7 4 9 10 11 12 10 6 7 17 18 17 12 11 8 8 11 10 10 13 13 13 14 15 14 11 10 8 6 8 8 9 9 9 10 10 9 9 8 8 6 6 6 5 5 4 5 5 3 5 4 2 3 3 5 4 4
14 9 9 16 11 15 15 15 14 10 8 11 11 11 8 6 3 7 0 4 3 3 5 5 1 5 6 3 7 4 5 3 9 8 7 6 8 9 11 20 15 12 11 9 8 12 12 11 11 12 12 11 11 11 9 8 7 6 7 8 8 9 9 10 10 9 8 8 8 7 7 6 5 4 4 6 5 4 4 4 3 3 4 5 5 4
8 9 9 15 16 14 16 14 14 11 7 3 9 11 10 6 8 3 3 5 3 3 2 2 3 9 6 6 5 7 6 6 3 2 7 15 15 11 10 13 19 15 15 12 12 12 14 9 10 7 6 9 10 8 8 8 6 8 6 6 8 7 6 8 8 8 7 7 7 7 6 6 5 4 5 5 5 5 4 3 3 4 6 6 5 4
5 6 4 8 17 14 14 13 14 13 10 6 10 8 11 11 7 4 4 3 4 5 3 8 7 4 6 5 9 10 9 7 6 9 18 14 13 12 10 14 16 13 14 13 9 10 10 8 9 7 7 6 9 9 8 7 5 5 5 4 8 7 9 7 8 8 7 7 6 6 6 6 6 5 5 6 6 4 5 4 4 5 5 5 4 3
8 8 8 12 13 13 12 13 14 15 14 11 3 2 8 5 11 4 1 5 4 5 4 9 9 4 3 2 8 12 10 10 9 6 11 11 9 9 8 10 11 11 8 7 8 6 6 7 2 3 7 11 4 3 5 7 6 6 5 6 7 7 7 8 6 6 6 5 5 5 6 7 6 5 6 5 5 5 5 4 3 4 4 4 4 4
1 5 3 13 13 12 11 8 8 9 12 13 7 7 5 2 4 3 3 4 3 2 5 8 11 3 5 6 7 9 11 10 8 8 8 9 7 6 5 4 8 11 7 6 3 2 4 5 6 10 11 12 12 12 9 9 7 8 7 7 8 6 6 6 5 5 7 6 5 6 6 5 5 6 6 5 5 5 5 5 4 4 4 4 3 3
3 3 3 7 12 8 11 8 9 8 8 10 8 8 6 3 3 3 0 8 6 3 4 4 3 2 3 8 7 9 8 12 12 10 9 8 6 3 3 5 6 7 6 8 7 9 9 11 15 17 16 13 14 10 9 9 8 7 6 7 9 8 7 6 5 5 4 5 5 5 5 5 5 6 6 6 5 5 5 4 4 4 3 3 3 3
3 4 3 6 6 10 9 11 11 10 10 8 8 9 8 5 8 6 4 3 6 3 3 3 4 3 4 5 5 8 8 11 12 13 11 13 15 10 2 6 5 5 5 5 15 14 14 13 13 13 12 12 13 11 9 6 7 7 7 6 6 7 6 6 6 5 5 4 5 5 5 5 4 5 5 6 5 5 6 5 4 4 3 3 3 3
2 2 6 5 8 5 12 7 4 9 11 13 10 9 10 7 6 5 5 4 7 5 7 4 4 3 3 6 6 7 9 12 9 8 10 12 12 10 12 15 10 10 9 10 3 10 10 8 7 12 12 11 10 9 10 8 7 7 7 7 6 6 6 6 6 7 6 5 5 5 5 4 4 5 6 6 5 6 6 4 4 4 3 3 3 3
0 0 5 7 5 10 12 11 11 13 13 15 12 9 7 9 9 8 6 2 3 2 4 3 2 1 4 6 7 12 14 13 9 7 10 10 11 12 9 8 9 9 9 7 7 8 9 9 10 9 9 11 10 8 8 6 7 6 5 6 7 6 6 7 7 7 7 6 6 6 6 5 4 4 6 6 5 6 5 5 4 5 4 4 4 6
4 2 2 3 2 5 7 8 8 9 8 5 5 7 9 8 8 5 6 2 4 3 6 7 2 2 4 3 9 10 13 15 12 5 8 11 10 11 10 8 7 9 9 11 10 11 12 10 11 9 9 9 9 8 7 7 6 6 5 4 5 5 5 5 6 5 7 8 7 6 5 5 6 5 5 5 5 6 5 5 5 4 6 4 4 4
2 1 3 4 5 7 7 6 1 4 7 7 10 11 10 11 6 2 2 1 4 4 10 2 4 6 4 7 11 10 12 13 12 13 10 10 12 11 10 9 8 7 10 13 13 11 11 12 10 8 7 9 9 8 7 6 5 5 6 4 2 4 4 4 2 6 5 6 6 5 6 5 5 5 5 5 5 4 3 5 5 4 3 4 4 3
2 1 1 3 2 2 1 1 3 4 7 8 8 10 10 11 8 6 3 1 2 5 3 4 12 9 9 11 11 10 10 11 12 13 13 12 11 11 11 11 9 8 11 14 12 11 11 11 14 11 7 10 10 9 8 7 7 8 7 3 3 4 4 4 4 4 7 7 6 6 6 6 5 4 4 3 3 3 3 2 2 4 3 3 4 4
1 1 3 3 3 7 4 6 5 7 10 10 6 5 14 14 3 5 3 5 3 5 2 4 11 13 9 11 12 12 12 11 12 12 12 10 10 11 12 12 12 12 13 12 12 13 13 13 13 13 12 11 10 9 10 10 11 11 10 10 6 2 3 4 5 5 7 8 6 6 6 5 5 5 4 3 3 4 3 3 2 2 2 2 4 5
3 2 4 3 6 7 4 5 2 5 11 13 7 7 8 9 13 11 8 8 8 3 5 5 12 15 12 11 8 10 11 10 11 11 11 12 13 13 13 14 15 14 13 15 16 16 16 12 8 12 12 12 12 11 10 9 9 9 7 3 7 12 11 8 4 4 5 6 7 5 5 3 3 3 4 6 3 3 3 3 3 3 2 2 2 3
4 5 7 7 7 8 7 7 7 3 8 12 11 5 8 8 12 9 10 12 10 7 15 12 13 12 11 11 12 11 11 11 10 9 10 13 15 14 13 14 15 15 15 16 16 16 15 16 16 13 11 10 12 12 12 8 7 8 7 7 4 1 5 8 7 5 6 5 4 4 4 4 3 2 2 1 2 2 2 2 2 2 3 3 2 2
6 1 4 7 7 8 10 9 8 10 10 11 11 10 7 8 11 11 9 13 15 12 13 16 15 12 7 9 8 8 9 10 10 9 12 13 14 13 13 13 13 14 16 16 16 16 16 17 17 16 16 16 16 13 8 6 8 7 8 8 5 6 5 6 8 7 6 3 2 4 3 4 4 4 3 1 3 3 1 1 0 1 1 1 1 2
4 1 2 5 3 4 6 6 7 8 10 9 11 10 10 8 3 6 2 4 8 10 12 13 11 7 8 7 10 7 8 10 13 12 11 10 12 13 13 13 13 14 15 15 14 15 16 16 16 15 15 15 15 16 14 12 12 9 8 4 8 7 10 8 4 6 6 5 1 3 5 4 5 3 3 1 2 3 1 0 0 1 2 2 2 1
5 2 2 2 3 3 3 2 5 6 4 7 7 6 6 6 6 6 7 8 7 9 8 3 7 10 10 9 10 10 9 11 12 11 10 13 13 12 13 13 13 13 14 14 14 14 14 13 14 14 14 14 14 14 16 16 13 11 9 9 6 7 6 8 7 4 5 5 3 4 3 5 5 5 1 2 1 1 2 1 1 1 1 3 2 1
7 6 1 4 3 3 2 3 4 3 6 1 5 8 4 7 7 6 7 8 8 6 2 8 12 12 12 10 10 12 10 7 11 12 12 10 11 12 12 12 12 12 13 13 13 13 13 12 12 12 14 14 14 14 13 14 14 13 15 14 14 8 7 10 10 9 8 7 6 4 4 6 3 2 1 2 2 1 1 1 4 3 3 3 3 2
6 6 1 4 1 1 5 9 3 7 1 3 5 9 10 14 15 12 9 8 12 14 16 15 14 14 12 12 11 13 14 14 12 11 10 10 10 10 11 11 11 11 11 12 12 12 11 12 12 13 14 14 13 12 12 13 13 12 13 13 14 15 10 10 10 10 9 9 10 10 10 7 6 4 2 2 2 1 4 8 8 7 7 7 6 5
3 2 1 1 1 1 2 4 3 2 3 4 5 7 9 11 11 12 9 7 8 10 13 14 14 15 15 14 13 12 12 13 11 10 10 10 11 10 11 11 12 12 11 10 11 10 10 10 10 10 10 9 10 11 11 11 11 12 11 11 12 12 13 12 11 11 10 10 10 11 10 10 10 9 9 4 1 4 3 3 2 3 2 3 3 3
2 3 0 1 2 0 3 1 1 3 2 4 3 8 8 7 5 4 1 5 6 6 9 13 16 16 17 16 15 14 14 13 11 10 10 12 12 12 12 12 11 11 11 9 8 7 8 7 7 7 5 6 6 8 7 8 9 10 9 10 9 9 10 10 10 9 8 8 9 9 8 8 8 9 8 8 8 8 7 2 1 2 2 2 2 2
1 2 6 3 2 4 4 1 2 1 2 2 7 9 9 6 8 8 5 7 7 6 10 13 14 15 16 16 15 14 12 10 9 8 8 9 10 12 11 11 11 10 10 9 8 8 6 4 4 5 4 3 5 4 4 5 4 5 7 8 8 7 7 7 7 8 9 9 9 9 10 9 7 6 6 6 7 7 6 7 6 4 1 2 2 4
3 2 2 3 2 2 2 3 2 1 3 2 7 11 13 10 8 9 2 3 3 9 11 12 13 12 12 13 13 10 7 6 6 7 7 9 10 9 10 10 10 10 9 8 7 6 6 4 5 5 4 3 5 4 1 3 3 2 1 2 6 6 5 5 6 6 6 5 6 7 8 8 8 6 5 5 6 5 6 6 6 6 6 5 3 4
4 2 3 3 4 4 4 5 1 3 3 7 7 4 8 12 11 5 5 4 3 10 12 12 12 11 10 9 9 7 4 5 8 8 9 9 9 7 7 8 9 9 9 9 8 5 7 5 7 7 4 5 6 4 4 5 4 5 5 3 2 2 5 7 7 7 7 7 7 7 7 6 6 5 5 6 6 6 6 6 6 5 6 6 6 5
4 4 3 3 3 4 4 2 4 3 2 5 8 8 4 5 6 2 0 3 3 8 7 9 11 11 11 10 5 5 11 11 12 12 11 11 10 9 8 7 8 8 8 8 7 6 5 5 6 5 4 4 4 3 4 5 4 4 5 4 4 7 7 7 8 8 8 7 7 7 7 7 7 7 8 7 7 7 6 6 6 6 6 6 6 6
5 3 3 4 3 3 2 1 4 4 2 6 8 7 8 4 2 5 3 3 7 10 10 9 10 11 13 11 10 10 10 12 13 11 11 10 9 8 8 8 7 7 7 7 7 6 5 4 5 5 5 4 4 6 6 5 6 5 6 6 6 7 7 7 7 7 7 6 7 7 7 7 7 7 7 7 7 7 7 7 7 7 6 6 6 7
6 3 4 5 4 3 2 1 4 3 3 8 9 3 10 3 3 4 6 12 8 10 13 14 13 9 9 12 13 11 11 11 10 10 9 8 7 7 7 6 6 6 5 5 5 6 4 3 4 3 3 3 4 5 5 6 6 6 6 6 6 6 6 6 6 6 6 7 7 7 7 7 7 7 6 7 7 8 8 8 8 8 8 8 9 10
9 3 3 5 5 4 4 4 4 4 5 8 8 4 6 6 5 6 9 9 6 8 10 10 11 10 9 9 10 9 10 10 8 8 7 7 7 6 6 6 5 5 4 4 5 5 3 2 4 1 2 2 3 2 2 3 3 4 5 4 3 4 4 5 5 6 6 6 7 7 7 8 8 8 7 8 9 9 10 9 8 8 7 8 8 8
8 5 4 5 8 5 4 5 5 4 6 6 5 5 7 11 9 10 13 9 6 8 8 8 10 9 10 10 10 9 8 6 7 6 6 5 5 4 5 5 4 4 3 3 5 5 4 3 2 2 3 2 2 2 1 1 1 3 3 4 3 3 4 5 5 4 5 7 7 6 7 7 7 7 7 7 7 8 9 9 9 9 8 8 9 9
6 5 0 2 9 11 10 8 6 6 8 9 9 6 7 8 8 13 12 10 12 12 11 10 11 13 13 6 9 7 7 7 7 5 4 4 4 4 3 5 4 4 4 3 5 5 4 2 1 4 2 2 3 1 2 1 1 4 3 2 3 5 6 6 7 6 7 8 7 8 9 8 8 9 9 8 6 7 7 8 9 9 9 9 9 9
6 5 4 5 4 1 4 6 8 9 8 8 9 11 11 10 10 10 11 11 9 9 9 10 10 10 10 12 10 8 8 5 5 3 3 3 3 3 4 4 3 3 3 4 5 4 3 2 2 4 2 0 2 3 3 3 3 5 5 5 6 5 6 6 7 7 7 8 9 9 9 10 8 7 7 8 8 8 8 7 7 8 9 9 9 9
5 8 2 5 4 2 7 6 8 8 7 6 6 7 8 8 9 9 9 8 8 8 8 7 6 7 6 6 6 6 5 4 5 5 4 3 2 4 4 4 3 3 3 3 4 4 3 1 2 1 2 1 2 3 4 6 7 7 7 7 7 7 8 8 8 9 9 10 10 9 9 9 9 10 7 8 8 8 8 7 6 6 8 8 9 8
3 8 3 4 6 7 8 7 7 7 7 8 8 7 6 6 7 7 7 7 6 7 6 5 6 5 5 5 4 6 7 6 4 2 3 3 2 3 4 3 3 2 2 3 3 2 3 3 2 2 4 4 5 6 5 5 5 6 7 7 8 7 8 7 8 8 9 9 8 8 7 7 8 8 8 9 9 8 8 8 8 8 8 9 9 7
2 8 7 1 7 3 3 6 6 3 5 5 6 7 8 8 8 8 8 8 7 8 8 8 6 6 7 6 5 5 6 5 4 2 2 2 3 4 2 3 3 4 3 3 3 2 2 0 1 3 3 4 4 4 5 6 6 7 7 8 8 8 7 8 7 8 8 8 7 8 7 7 8 8 9 9 9 10 9 10 12 10 9 10 14 19
7 6 6 7 4 5 6 7 1 4 8 5 7 7 7 7 6 6 5 8 7 5 2 3 3 6 9 7 8 7 5 5 4 3 3 4 4 2 3 6 6 5 4 4 4 4 2 2 3 3 3 4 5 5 6 7 7 7 8 8 8 9 9 9 7 6 8 7 7 7 8 8 8 9 9 9 10 10 10 9 10 12 14 13 14 14
Wind_Direction
195 212 215 217 225 224 220 232 238 234 244 254 264 276 238 231 242 239 238 242 176 200 195 217 223 211 227 236 241 216 104 163 214 203 225 218 198 210 154 124 155 227 193 172 172 165 167 170 136 141 68 58 58 61 98 125 102 113 105 160 124 351 27 108 97 120 120 102 62 1 217 188 163 102 111 90 75 84 57 88 123 131 102 107 151 145
215 217 224 223 223 235 226 223 242 254 256 260 268 264 251 230 237 236 232 237 181 197 194 205 226 221 215 229 245 215 179 192 208 230 232 225 208 205 153 107 178 239 200 181 151 160 164 136 119 66 66 66 71 83 84 58 30 46 43 44 100 166 109 4 71 109 96 120 156 194 201 138 134 147 129 108 104 94 106 102 93 95 116 114 128 143
211 224 227 231 227 231 243 224 223 246 256 258 266 278 283 234 226 246 233 227 203 167 243 200 213 224 220 226 225 249 199 184 196 212 231 232 211 199 157 146 212 207 215 165 165 149 156 126 79 85 92 112 125 125 97 75 67 78 73 95 113 118 133 131 299 237 164 163 191 249 79 92 73 50 56 91 117 122 110 108 105 95 113 130 113 94
215 222 230 233 231 232 239 235 215 228 242 253 252 256 266 261 227 220 236 227 217 180 192 245 209 207 235 237 230 224 243 216 180 199 219 232 224 193 187 173 181 206 194 164 154 151 87 64 94 112 109 102 106 99 105 109 126 137 136 148 151 167 153 141 120 345 170 123 122 82 71 75 85 97 83 67 47 106 127 94 93 104 108 104 129 129
222 226 211 225 234 218 232 251 227 213 235 235 258 248 255 263 247 241 227 208 108 109 245 275 277 252 212 226 229 224 211 255 207 194 202 227 236 197 117 104 134 155 157 123 134 73 69 107 106 96 106 109 103 120 139 141 137 144 142 122 111 83 66 66 61 77 329 62 87 97 99 108 113 114 132 109 87 50 82 125 115 119 132 110 105 107
232 239 230 210 225 224 209 232 240 242 244 237 233 248 259 268 275 247 161 121 190 168 169 212 248 246 241 227 226 204 189 239 243 190 196 221 239 195 135 133 130 133 88 53 75 97 108 119 91 107 117 115 134 141 158 138 157 144 143 112 125 124 119 118 150 129 186 179 119 128 125 132 141 140 127 130 146 155 94 77 85 65 72 75 88 117
244 229 233 230 222 209 199 220 216 215 246 247 224 227 248 262 267 278 247 197 210 237 192 171 237 239 231 240 233 225 210 227 232 193 213 217 232 167 123 126 143 134 88 84 106 112 130 114 110 124 122 121 123 142 144 146 148 127 122 125 125 132 133 149 159 141 153 131 130 135 133 117 110 100 93 98 73 95 114 92 85 90 64 112 78 87
235 241 247 243 182 219 234 227 227 217 227 238 246 209 221 243 254 263 276 247 192 204 236 217 211 250 231 214 218 212 223 225 212 207 222 227 108 103 130 144 127 145 111 107 119 129 123 120 133 110 101 110 113 123 129 134 145 131 133 135 131 134 148 167 169 135 169 120 108 83 78 87 97 110 119 95 80 84 83 86 98 142 151 98 116 116
222 221 207 229 219 206 223 228 223 209 222 238 244 238 214 230 237 254 273 237 208 205 243 220 215 226 246 257 207 214 215 223 214 210 218 208 129 122 128 140 135 84 101 127 130 117 113 115 106 94 104 104 122 135 148 161 157 140 144 141 145 153 163 179 159 161 132 111 110 115 118 125 132 126 127 126 105 77 71 88 44 39 64 59 36 89
210 227 175 241 216 229 232 227 233 210 220 233 254 261 248 222 232 244 255 242 199 219 234 235 206 234 229 239 228 212 238 214 215 214 215 203 137 152 147 139 118 118 114 115 121 116 114 112 99 104 113 132 143 156 158 164 150 144 144 144 151 157 152 149 172 154 119 106 103 117 144 123 116 115 100 106 118 112 134 79 69 81 68 106 120 37
246 205 235 200 217 223 221 228 225 212 221 239 231 241 247 222 214 222 254 243 209 224 233 237 216 241 267 274 196 218 196 231 210 209 206 209 145 154 149 147 134 126 130 118 110 111 122 124 121 123 141 161 171 173 167 158 150 138 140 143 138 132 137 145 151 128 123 124 123 133 130 111 108 110 113 112 118 134 114 119 111 110 104 83 73 48
238 213 200 239 218 231 240 237 237 219 201 220 236 242 286 242 212 220 219 238 243 234 226 216 225 208 240 210 209 231 184 299 307 217 192 208 152 159 148 149 125 116 117 126 130 136 133 132 139 141 158 186 180 166 164 160 155 155 154 152 140 143 144 149 147 136 133 133 132 136 115 106 107 113 116 128 117 130 128 115 127 86 98 98 100 87
237 233 186 228 245 244 214 247 240 174 189 227 215 229 240 213 192 213 210 210 223 244 228 237 218 187 224 144 280 298 354 48 45 10 170 187 147 133 134 97 99 115 131 143 147 150 153 154 151 151 163 180 194 192 173 166 165 167 166 159 151 153 156 155 150 137 135 133 141 145 130 122 115 124 129 112 117 111 109 129 114 140 113 114 129 107
222 241 210 209 224 222 244 229 194 198 211 231 229 212 224 223 207 228 210 221 237 229 235 233 223 235 123 165 133 40 64 56 47 63 62 71 80 95 110 104 113 117 126 133 144 142 126 152 166 157 167 178 188 203 184 173 171 173 168 160 150 151 153 146 137 133 135 140 141 137 132 127 124 121 106 122 121 131 114 97 105 126 114 118 105 106
218 203 224 209 207 191 226 237 224 216 188 218 233 232 226 232 217 221 221 220 230 240 214 202 197 183 201 135 146 107 94 76 72 73 81 98 109 122 114 105 108 111 124 155 153 149 160 179 167 162 170 180 192 189 186 172 173 165 163 154 144 138 148 140 135 136 140 141 142 137 135 143 136 134 151 138 126 114 102 108 142 86 91 100 102 88
233 241 213 200 225 183 210 224 246 241 214 196 217 235 230 221 203 255 250 284 287 267 219 207 134 16 107 24 74 138 169 115 93 82 73 79 148 159 137 121 129 143 148 166 161 167 175 172 176 171 178 189 193 183 179 172 162 151 149 147 144 150 151 141 138 139 143 146 139 136 141 141 131 134 127 109 113 96 100 106 104 98 99 96 84 80
219 238 225 178 218 195 199 219 224 242 243 199 211 214 224 197 200 244 172 222 139 231 264 50 56 115 127 146 185 193 155 113 47 74 89 65 62 82 105 121 131 155 155 169 172 169 169 171 172 163 186 198 203 185 173 157 157 152 140 128 129 132 134 133 135 140 143 138 133 134 139 133 130 135 117 114 109 106 98 95 99 103 98 93 91 97
290 250 273 220 197 210 196 207 229 212 244 236 219 212 216 219 183 186 236 171 212 247 208 176 159 172 182 160 194 158 130 102 85 57 59 60 59 54 50 89 121 143 154 160 151 141 153 174 179 178 182 241 218 177 155 153 147 142 134 119 125 132 130 135 137 143 142 135 132 135 133 125 125 127 114 108 111 107 92 77 75 95 102 102 113 106
251 265 271 272 221 198 199 206 211 226 211 236 195 1 270 193 207 183 250 220 229 216 227 187 182 182 231 165 187 154 142 133 136 109 63 61 59 60 43 36 99 113 102 123 130 134 151 162 211 190 216 205 179 336 163 140 139 129 137 130 108 128 131 134 135 132 125 123 126 133 127 131 135 129 113 117 117 114 118 116 115 114 104 107 109 116
204 266 281 301 256 169 200 205 235 205 225 236 244 239 236 294 262 237 204 238 235 255 226 214 174 84 354 5 77 70 123 111 103 102 86 72 51 41 50 44 68 99 119 122 129 144 177 155 185 193 205 214 162 195 154 146 145 132 121 120 120 118 125 124 125 123 124 122 124 125 127 136 130 118 122 127 126 123 128 139 131 106 106 116 120 117
236 187 266 268 228 208 203 187 221 228 213 208 230 233 232 218 114 224 221 249 230 230 213 241 135 79 27 347 63 99 102 100 102 100 105 86 69 19 359 8 34 68 115 151 164 171 195 183 183 183 187 185 153 160 148 137 128 122 125 129 131 133 133 130 121 112 98 110 113 122 127 128 124 122 123 131 132 131 128 128 122 111 122 130 133 142
206 169 205 272 230 219 228 190 217 229 235 234 218 221 234 216 193 188 241 201 255 263 252 248 82 111 66 348 86 76 89 96 98 119 117 129 128 135 57 9 49 61 354 303 175 186 171 158 151 138 137 126 127 117 108 120 136 142 149 141 125 124 128 119 112 113 118 115 121 125 128 130 125 129 129 134 131 125 129 127 126 136 130 138 122 147
319 192 208 232 250 288 286 311 242 217 235 253 234 227 220 228 250 250 240 206 232 234 319 97 132 92 351 342 36 102 106 89 75 62 90 93 89 106 132 152 179 161 181 226 186 129 125 114 112 110 107 114 123 128 130 132 135 138 145 139 129 127 126 127 126 128 132 129 124 127 123 123 139 139 137 131 128 135 139 139 137 146 147 145 145 165
189 263 204 238 287 300 282 293 285 282 247 221 229 265 247 230 229 249 246 288 253 226 247 173 130 102 61 327 78 88 96 105 84 81 90 83 102 109 102 91 104 114 125 98 76 105 103 107 82 73 77 89 93 97 105 116 122 124 121 130 129 130 138 135 137 139 137 132 133 136 142 140 147 150 142 135 140 146 146 151 157 159 164 172 168 185
270 289 254 162 247 236 279 262 265 285 308 286 253 215 245 274 249 229 256 231 249 223 252 259 123 179 133 247 108 118 113 112 131 125 93 106 97 85 82 83 96 116 116 111 106 95 88 82 92 96 97 92 87 92 105 104 110 114 94 113 135 136 154 145 135 162 150 144 145 149 146 153 160 160 158 149 157 164 163 153 159 183 172 177 180 169
340 331 303 259 202 214 208 209 330 341 327 301 249 249 239 242 260 311 318 337 264 209 238 285 100 101 160 131 117 114 109 104 102 112 112 96 92 93 97 92 79 78 95 98 94 90 96 101 86 65 70 96 99 100 96 106 117 122 128 113 97 135 126 113 183 146 138 122 129 141 158 168 161 163 162 159 158 168 157 153 166 178 177 163 171 155
206 233 36 35 348 162 316 350 215 323 303 288 320 320 304 251 229 277 306 311 253 358 14 34 150 139 138 124 119 99 108 111 107 97 93 93 96 104 104 96 98 85 82 90 95 99 98 98 108 114 110 96 87 81 81 81 66 47 35 70 140 119 142 168 165 138 127 131 138 161 168 162 169 158 150 153 155 158 157 138 161 157 197 166 167 144
206 191 144 172 61 106 69 347 12 357 319 310 288 325 352 329 248 219 254 269 358 219 87 287 129 124 129 130 130 122 108 99 97 100 100 97 96 95 93 91 86 82 74 67 76 86 86 92 98 107 102 93 85 84 77 63 59 46 6 347 338 209 165 164 147 138 141 141 144 167 162 162 163 148 149 154 176 164 170 152 172 215 199 186 162 156
232 234 148 158 229 260 174 202 60 335 316 328 327 5 300 345 20 16 357 302 275 264 151 142 127 120 127 110 115 97 100 102 105 107 100 102 103 95 90 88 88 89 83 72 65 57 53 52 79 97 96 96 90 78 70 77 87 97 97 57 330 331 358 11 47 109 128 133 147 154 146 130 146 126 136 162 191 157 146 144 172 203 224 210 185 155
232 229 234 215 233 231 234 238 254 286 309 312 327 7 8 52 42 30 34 38 30 113 135 145 118 105 116 107 90 99 94 98 103 115 118 104 92 91 87 85 84 78 74 69 62 58 55 51 42 48 62 78 104 115 118 118 122 127 132 132 127 5 12 359 354 344 42 69 86 112 127 122 118 125 77 155 136 164 161 154 210 211 209 205 182 170
214 217 192 244 246 230 217 221 226 235 241 283 315 321 16 46 65 36 32 75 83 79 95 110 107 104 89 98 104 105 124 122 119 114 105 101 95 90 84 84 85 84 78 70 65 61 56 49 43 42 42 41 32 36 58 118 120 105 132 131 132 125 132 107 59 22 331 298 142 106 81 93 100 114 146 139 46 33 64 144 132 301 274 252 191 183
206 237 168 234 251 245 244 222 215 220 218 244 271 286 303 324 34 93 51 41 108 117 111 104 110 122 134 143 126 103 121 124 110 108 104 96 90 87 84 82 76 74 75 74 72 66 59 53 49 44 41 39 38 35 32 31 51 47 39 105 137 126 106 100 139 163 201 218 47 68 115 125 128 104 57 41 144 141 104 82 114 338 339 313 280 257
338 250 226 202 220 249 273 223 217 193 202 219 235 263 252 252 124 115 93 112 118 128 132 152 124 138 137 148 149 152 137 121 124 115 103 86 79 85 81 74 68 65 62 60 58 58 55 54 48 40 34 34 31 31 22 14 21 26 25 25 36 108 122 134 135 126 74 47 12 39 85 87 60 63 120 122 19 80 104 340 316 267 291 301 293 310
266 264 321 2 263 224 238 241 215 226 223 233 359 334 297 205 173 104 82 83 133 166 121 108 127 136 138 140 134 129 123 111 92 83 84 86 83 76 76 73 73 70 65 61 58 52 46 42 40 36 34 32 30 28 26 23 11 5 14 14 9 12 75 60 50 42 36 43 68 67 6 73 102 88 27 105 143 278 46 12 292 264 246 250 258 229
226 259 189 154 291 320 48 25 324 218 200 5 324 24 52 74 88 91 77 78 89 100 106 113 127 135 136 136 123 98 87 84 83 89 98 100 99 96 93 86 78 73 70 64 56 53 51 45 39 32 26 24 21 21 22 21 15 13 21 19 17 4 17 61 60 43 31 30 19 20 16 36 53 76 217 65 36 270 197 202 213 216 213 226 225 208
170 215 75 53 82 300 301 156 213 129 341 18 12 23 65 86 88 89 77 60 79 103 120 128 136 134 130 123 118 126 127 120 112 107 111 111 109 109 99 88 82 73 59 49 52 51 52 53 51 45 34 19 20 23 26 21 13 14 13 23 17 12 19 30 41 35 25 21 16 8 15 10 14 12 359 358 199 209 202 233 228 233 197 198 203 189
170 106 125 65 34 279 285 196 90 13 315 69 101 34 352 32 352 338 116 111 108 137 138 141 143 135 129 125 121 117 112 105 96 87 81 85 86 83 85 85 86 93 101 92 74 48 38 44 65 74 56 47 28 28 15 17 18 12 7 15 18 16 14 16 20 29 23 17 9 3 8 8 11 4 354 354 339 348 346 313 174 232 217 235 207 168
355 207 161 169 161 211 246 172 206 125 188 60 12 10 359 357 342 335 89 122 145 130 96 90 104 118 122 125 127 127 124 111 102 97 97 100 95 96 100 106 104 99 98 107 121 131 124 123 91 84 70 90 67 24 351 10 16 20 16 357 0 7 9 20 15 18 14 7 2 360 357 352 347 353 354 343 334 345 338 338 335 327 268 222 219 212
245 301 254 240 221 201 243 256 254 62 78 347 11 335 346 336 340 328 243 107 93 108 110 111 109 115 120 126 129 138 142 123 113 106 108 104 99 102 117 115 114 109 109 116 123 139 168 164 162 137 123 58 70 66 54 168 180 210 122 58 331 345 13 43 16 12 3 350 356 348 340 336 334 331 336 324 327 330 326 325 323 321 329 314 274 236
318 236 241 230 232 231 248 261 312 80 93 8 4 8 316 323 326 319 223 147 138 129 124 123 127 124 136 137 151 178 238 158 143 139 129 114 111 111 90 91 88 82 79 85 86 78 77 98 91 68 32 43 27 26 20 8 13 357 351 31 346 335 24 18 6 355 356 358 353 341 324 315 322 335 335 327 319 322 317 315 314 301 301 306 301 300
314 360 339 298 284 262 255 112 96 118 87 356 339 331 327 304 314 263 163 112 128 103 117 126 132 138 149 161 182 87 58 84 108 121 124 119 112 106 103 91 82 79 82 74 52 42 95 92 68 69 67 53 50 16 1 16 15 353 16 5 354 24 14 5 2 360 351 342 328 322 328 333 337 332 326 320 317 314 308 301 293 294 284 288 288 281
11 13 328 336 355 338 321 13 84 86 329 292 312 319 323 295 56 93 91 98 113 114 122 127 100 72 78 82 85 85 91 100 109 116 116 109 101 101 101 96 94 96 95 91 73 53 49 61 67 47 38 33 16 14 11 22 13 18 22 9 9 10 4 352 350 340 335 329 333 334 328 328 324 324 316 303 293 291 284 279 280 279 287 281 281 283
21 342 15 32 349 318 319 139 127 81 41 342 306 322 357 62 103 136 71 54 57 89 86 73 79 97 99 98 92 94 99 106 104 101 101 101 97 89 82 84 88 85 79 96 94 61 11 76 78 57 59 64 39 13 17 12 13 23 8 358 359 357 347 340 333 335 334 330 322 322 317 313 313 310 310 307 303 296 287 284 284 281 279 275 266 263
15 317 6 58 17 312 42 64 51 47 53 21 19 70 12 42 100 89 88 75 68 96 91 88 84 90 96 98 97 100 101 96 98 100 99 98 102 101 103 97 88 83 82 82 81 52 5 63 64 70 85 60 53 33 44 19 24 15 343 318 352 314 308 311 326 325 322 321 316 307 311 314 312 308 306 307 309 307 304 299 289 279 275 273 271 274
18 36 5 46 31 37 72 94 115 89 62 67 62 91 72 41 39 61 55 53 88 94 80 84 78 84 97 104 102 100 87 81 76 82 90 98 93 80 102 100 71 69 72 76 76 34 348 37 53 106 64 50 105 112 99 92 334 336 318 344 345 313 318 322 314 309 305 305 302 307 303 299 291 284 286 292 299 298 298 297 299 292 284 276 272 267
65 44 311 89 87 78 63 75 93 93 80 70 59 57 68 63 63 71 72 73 49 48 53 58 52 43 31 77 117 103 107 111 105 91 98 93 95 108 86 79 71 59 58 60 66 29 344 360 134 96 61 67 83 28 174 251 335 263 277 304 306 329 330 314 309 315 316 309 307 301 301 297 305 307 304 302 293 291 296 299 300 295 290 288 288 283
60 349 33 60 116 227 86 105 89 92 88 79 80 61 61 70 63 67 73 69 71 71 74 64 60 53 48 35 54 69 59 51 94 103 103 112 100 104 108 87 75 60 52 47 64 9 332 20 24 65 43 27 222 255 305 29 314 325 345 1 339 322 305 317 318 318 317 311 307 307 306 306 295 299 302 300 296 286 275 269 276 286 292 290 277 272
68 323 330 74 61 42 110 117 115 107 104 104 109 95 92 92 90 83 76 75 80 82 78 83 72 71 72 85 90 84 83 45 27 21 18 68 75 81 69 58 41 39 52 48 55 348 295 137 45 107 187 274 324 0 7 350 356 344 351 343 333 331 337 338 345 334 321 311 306 307 306 302 314 313 298 293 295 300 298 288 284 289 290 294 299 309
327 292 44 55 93 94 106 122 124 116 116 106 98 97 96 95 94 104 110 112 115 106 115 120 118 112 110 119 146 160 145 123 97 47 358 360 57 63 48 32 31 25 29 5 27 304 292 28 28 335 326 360 11 20 358 3 341 335 337 337 342 346 338 334 329 320 308 308 307 305 312 308 303 303 306 309 302 296 301 307 311 304 298 299 304 317
44 37 354 219 123 152 141 125 137 150 134 100 110 115 118 125 128 124 137 135 127 135 135 132 134 155 156 151 136 106 75 86 80 43 328 80 83 66 31 41 2 22 350 14 310 281 305 70 73 347 8 359 7 359 356 336 335 336 342 342 339 340 337 331 320 313 311 311 311 303 307 306 305 303 302 301 300 301 294 292 295 294 296 299 301 304
50 31 34 35 33 59 100 129 69 57 119 123 125 130 130 131 137 146 133 116 118 106 113 144 143 180 157 168 135 112 112 97 89 51 29 9 31 25 39 31 2 334 352 353 314 277 119 41 5 349 2 347 358 348 348 347 338 335 339 344 346 351 340 328 317 307 305 306 304 316 319 308 303 304 301 299 298 296 297 300 300 298 294 291 292 293